This demonstration page uses our WeatherBlox Daily Observations layout. Learn more.

Left ArrowRight Arrow

Hourly Observations for September 17, 2016

Temp ( °F °C ) Dew Point ( °F °C ) Humidity (%) Winds ( mph kmh ) Pressure ( in mb ) Visibility ( mi km ) Precip ( " mm )
12:15 am 00:15 Cloudy 72 22 63 17 73 73 SSE 8 13 30.24 1024 10 16 N/A
12:35 am 00:35 Partly Cloudy 72 22 63 17 73 73 SSE 8 13 30.24 1024 10 16 N/A
12:55 am 00:55 Mostly Cloudy 72 22 63 17 73 73 SSE 6 9 30.24 1024 10 16 N/A
1:15 am 01:15 Partly Cloudy 72 22 64 18 78 78 SSE 6 9 30.24 1024 10 16 N/A
1:35 am 01:35 Partly Cloudy 70 21 64 18 83 83 SSE 5 7 30.24 1024 10 16 N/A
1:55 am 01:55 Mostly Cloudy 70 21 64 18 83 83 SSE 5 7 30.24 1024 10 16 N/A
2:15 am 02:15 Cloudy 70 21 64 18 83 83 SSE 6 9 30.24 1024 10 16 N/A
2:35 am 02:35 Cloudy 70 21 64 18 83 83 SSE 6 9 30.24 1024 10 16 N/A
2:55 am 02:55 Cloudy 70 21 64 18 83 83 SSE 6 9 30.24 1024 10 16 N/A
3:15 am 03:15 Cloudy 70 21 64 18 83 83 SSE 6 9 30.24 1024 10 16 N/A
3:35 am 03:35 Cloudy 70 21 64 18 83 83 SSE 8 13 30.21 1023 10 16 N/A
3:55 am 03:55 Cloudy 70 21 64 18 83 83 SSE 7 11 30.21 1023 10 16 N/A
4:15 am 04:15 Cloudy 70 21 64 18 83 83 SSE 8 13 30.21 1023 10 16 N/A
4:35 am 04:35 Cloudy 70 21 64 18 83 83 S 5 7 30.21 1023 10 16 N/A
4:55 am 04:55 Cloudy 70 21 64 18 83 83 SSE 3 6 30.21 1023 10 16 N/A
5:15 am 05:15 Cloudy 70 21 64 18 83 83 SSE 6 9 30.24 1024 10 16 N/A
5:35 am 05:35 Cloudy 70 21 64 18 83 83 SSE 7 11 30.21 1023 10 16 N/A
5:55 am 05:55 Cloudy 68 20 64 18 88 88 S 3 6 30.24 1024 10 16 N/A
6:15 am 06:15 Cloudy 68 20 64 18 88 88 N N/A 30.24 1024 10 16 N/A
6:35 am 06:35 Cloudy 68 20 64 18 88 88 S 5 7 30.24 1024 10 16 N/A
6:55 am 06:55 Cloudy 68 20 64 18 88 88 S 5 7 30.24 1024 10 16 N/A
7:15 am 07:15 Cloudy 68 20 64 18 88 88 S 6 9 30.24 1024 10 16 N/A
7:35 am 07:35 Cloudy 68 20 64 18 88 88 N N/A 30.24 1024 10 16 N/A
7:55 am 07:55 Cloudy 70 21 64 18 83 83 SSE 6 9 30.24 1024 10 16 N/A
8:15 am 08:15 Cloudy 70 21 64 18 83 83 S 7 11 30.24 1024 10 16 N/A
8:35 am 08:35 Cloudy 70 21 64 18 83 83 S 6 9 30.24 1024 10 16 N/A
8:55 am 08:55 Cloudy 70 21 64 18 83 83 S 9 15 30.24 1024 10 16 N/A
9:15 am 09:15 Cloudy 72 22 64 18 78 78 SSE 9 15 30.24 1024 10 16 N/A
9:35 am 09:35 Cloudy 72 22 66 19 83 83 SSE 12 19 30.24 1024 10 16 N/A
9:55 am 09:55 Cloudy 73 23 66 19 78 78 SSE 9 15 30.24 1024 10 16 N/A
10:15 am 10:15 Cloudy 73 23 66 19 78 78 S 9 15 30.24 1024 10 16 N/A
10:35 am 10:35 Cloudy 73 23 66 19 78 78 S 12 19 30.24 1024 10 16 N/A
10:55 am 10:55 Cloudy 73 23 66 19 78 78 S 10 17 30.21 1023 10 16 N/A
11:15 am 11:15 Cloudy 73 23 66 19 78 78 SSE 10 17 30.21 1023 10 16 N/A
11:35 am 11:35 Cloudy 75 24 68 20 78 78 S 9 15 30.21 1023 10 16 N/A
11:55 am 11:55 Cloudy 77 25 68 20 74 74 S 13 20 30.21 1023 10 16 N/A
12:15 pm 12:15 Cloudy 77 25 68 20 74 74 S 12 19 30.21 1023 10 16 N/A
12:35 pm 12:35 Cloudy 79 26 68 20 70 70 SSW 9 15 30.21 1023 10 16 N/A
12:55 pm 12:55 Cloudy 79 26 68 20 70 70 SW 9 15 30.18 1022 10 16 N/A
1:15 pm 13:15 Cloudy 81 27 68 20 66 66 SSW 9 15 30.18 1022 10 16 N/A
1:35 pm 13:35 Cloudy 81 27 68 20 66 66 S 16 26 30.18 1022 10 16 N/A
1:55 pm 13:55 Cloudy 81 27 68 20 66 66 S 13 20 30.15 1021 10 16 N/A
2:15 pm 14:15 Cloudy 81 27 68 20 66 66 S 13 20 30.15 1021 10 16 N/A
2:35 pm 14:35 Cloudy 81 27 68 20 66 66 S 13 20 30.15 1021 10 16 N/A
2:55 pm 14:55 Cloudy 82 28 68 20 62 62 SSW 9 15 30.15 1021 10 16 N/A
3:15 pm 15:15 Cloudy 82 28 68 20 62 62 S 15 24 30.12 1020 10 16 N/A
3:35 pm 15:35 Cloudy 82 28 68 20 62 62 S 13 20 30.12 1020 10 16 N/A
3:55 pm 15:55 Cloudy 82 28 68 20 62 62 S 13 20 30.12 1020 10 16 N/A
4:15 pm 16:15 Cloudy 82 28 68 20 62 62 SSW 10 17 30.12 1020 10 16 N/A
4:35 pm 16:35 Cloudy 82 28 68 20 62 62 S 16 26 30.12 1020 10 16 N/A
4:55 pm 16:55 Mostly Cloudy 82 28 68 20 62 62 S 16 26 30.09 1019 10 16 N/A
5:15 pm 17:15 Mostly Cloudy 82 28 68 20 62 62 S 12 19 30.12 1020 10 16 N/A
5:35 pm 17:35 Cloudy 82 28 68 20 62 62 S 16 26 30.09 1019 10 16 N/A
5:55 pm 17:55 Mostly Cloudy 82 28 68 20 62 62 S 9 15 30.09 1019 10 16 N/A
6:15 pm 18:15 Mostly Cloudy 81 27 68 20 66 66 S 13 20 30.09 1019 10 16 N/A
6:35 pm 18:35 Partly Cloudy 81 27 68 20 66 66 S 13 20 30.09 1019 10 16 N/A
6:55 pm 18:55 Sunny 81 27 68 20 66 66 SSW 13 20 30.09 1019 10 16 N/A
7:15 pm 19:15 Sunny 81 27 68 20 66 66 S 12 19 30.09 1019 10 16 N/A
7:35 pm 19:35 Clear 79 26 68 20 70 70 SSW 14 22 30.09 1019 10 16 N/A
7:55 pm 19:55 Clear 79 26 68 20 70 70 SSW 13 20 30.09 1019 10 16 N/A
8:15 pm 20:15 Clear 77 25 68 20 74 74 S 10 17 30.12 1020 10 16 N/A
8:35 pm 20:35 Clear 79 26 68 20 70 70 SE 12 19 30.12 1020 10 16 N/A
8:55 pm 20:55 Clear 75 24 68 20 78 78 S 12 19 30.12 1020 10 16 N/A
9:15 pm 21:15 Clear 77 25 70 21 79 79 S 12 19 30.12 1020 10 16 N/A
9:35 pm 21:35 Clear 77 25 68 20 74 74 S 10 17 30.12 1020 10 16 N/A
9:55 pm 21:55 Clear 77 25 68 20 74 74 S 8 13 30.09 1019 10 16 N/A
10:15 pm 22:15 Clear 75 24 68 20 78 78 S 9 15 30.09 1019 10 16 N/A
10:35 pm 22:35 Clear 73 23 68 20 83 83 S 7 11 30.09 1019 10 16 N/A
10:55 pm 22:55 Clear 73 23 70 21 89 89 S 7 11 30.09 1019 10 16 N/A
11:15 pm 23:15 Clear 73 23 70 21 89 89 S 9 15 30.09 1019 10 16 N/A
11:35 pm 23:35 Clear 73 23 70 21 89 89 S 7 11 30.09 1019 10 16 N/A
11:55 pm 23:55 Clear 73 23 70 21 89 89 S 7 11 30.09 1019 10 16 N/A

Powered by AerisWeather